Location: Buenos Aires
(34.6076°S, 58.4371°W)
Time: 13:43:47
(UTC-03:00)

Envisat - Pass Details

Date: 02 July 2021
Orbit: 764 x 766 km, 98.2° (Epoch: 03 August)

Event Time Altitude Azimuth Distance (km) Brightness Sun altitude
Rises 19:33:20 0° 189° (S) 3,266 6.2 -19.8°
Reaches altitude 10° 19:36:38 10° 212° (SSW) 2,331 5.7 -20.4°
Maximum altitude 19:39:26 15° 245° (WSW) 2,000 5.8 -21.0°
Drops below altitude 10° 19:42:13 10° 278° (W) 2,316 6.6 -21.5°
Sets 19:45:29 0° 301° (WNW) 3,233 7.5 -22.2°
